SDG075 LICC-LIEO

Flight info

Callsign SDG075
Flight time N/A
Altitude 36000
Route LIBRO DCT LEBNU DCT GIANO L12 POKAV M603 ATNET
Aircraft B738/M-SDG075/L

Departure

Time 2026-05-01 11:59
Airport Catania-Fontanarossa Airport (LICC)

Arrival

Time N/A
Airport Olbia Costa Smeralda Airport (LIEO)
Time Latitude Longitude Altitude Speed Heading
2026-05-01 11:45 37.46932 15.07039 32 ft 0 kts 38°
2026-05-01 11:48 37.46929 15.07036 32 ft 2 kts 38°
2026-05-01 11:48 37.46917 15.07023 31 ft 2 kts 39°
2026-05-01 11:49 37.46904 15.07010 31 ft 2 kts 39°
2026-05-01 11:49 37.46891 15.06998 29 ft 2 kts 26°
2026-05-01 11:49 37.46875 15.06993 28 ft 2 kts 342°
2026-05-01 11:49 37.46866 15.06998 29 ft 1 kts 316°
2026-05-01 11:50 37.46864 15.07001 29 ft 0 kts 315°
2026-05-01 11:51 37.46867 15.06995 29 ft 5 kts 306°
2026-05-01 11:52 37.46867 15.06909 30 ft 12 kts 264°
2026-05-01 11:52 37.46858 15.06806 32 ft 11 kts 264°
2026-05-01 11:52 37.46851 15.06725 33 ft 8 kts 263°
2026-05-01 11:52 37.46845 15.06654 33 ft 11 kts 263°
2026-05-01 11:53 37.46834 15.06540 33 ft 15 kts 263°
2026-05-01 11:53 37.46821 15.06414 31 ft 14 kts 262°
2026-05-01 11:53 37.46812 15.06312 36 ft 10 kts 264°
2026-05-01 11:53 37.46805 15.06226 38 ft 10 kts 264°
2026-05-01 11:54 37.46798 15.06145 39 ft 8 kts 264°
2026-05-01 11:54 37.46793 15.06050 38 ft 15 kts 266°
2026-05-01 11:54 37.46784 15.05902 41 ft 17 kts 265°
2026-05-01 11:54 37.46776 15.05765 43 ft 14 kts 266°
2026-05-01 11:55 37.46770 15.05651 44 ft 12 kts 266°
2026-05-01 11:55 37.46756 15.05555 44 ft 11 kts 252°
2026-05-01 11:55 37.46720 15.05487 45 ft 8 kts 221°
2026-05-01 11:55 37.46680 15.05469 45 ft 0 kts 185°
2026-05-01 11:57 37.46653 15.05469 45 ft 0 kts 172°
2026-05-01 11:57 37.46644 15.05470 44 ft 2 kts 171°
2026-05-01 11:58 37.46607 15.05507 43 ft 16 kts 125°
2026-05-01 11:58 37.46601 15.05741 40 ft 51 kts 83°
2026-05-01 11:58 37.46786 15.07852 260 ft 171 kts 82°
2026-05-01 11:59 37.46916 15.09349 1272 ft 170 kts 85°
2026-05-01 11:59 37.47017 15.10796 2509 ft 168 kts 82°
2026-05-01 11:59 37.47226 15.12289 3199 ft 177 kts 78°
2026-05-01 12:00 37.47694 15.15424 4613 ft 185 kts 75°
2026-05-01 12:00 37.47930 15.17017 5349 ft 188 kts 75°
2026-05-01 12:00 37.48413 15.20331 5957 ft 197 kts 75°
2026-05-01 12:01 37.48655 15.22019 5996 ft 194 kts 76°
2026-05-01 12:01 37.48893 15.23687 5981 ft 193 kts 75°
2026-05-01 12:01 37.49130 15.25349 5983 ft 193 kts 75°
2026-05-01 12:01 37.49337 15.27011 5984 ft 194 kts 85°
2026-05-01 12:02 37.48911 15.28601 6000 ft 200 kts 133°
2026-05-01 12:02 37.47680 15.29417 6017 ft 206 kts 174°
2026-05-01 12:02 37.46207 15.29637 6028 ft 227 kts 173°
2026-05-01 12:02 37.44596 15.29964 6015 ft 238 kts 172°
2026-05-01 12:03 37.42998 15.29973 5962 ft 231 kts 201°
2026-05-01 12:03 37.41742 15.28860 5902 ft 218 kts 238°
2026-05-01 12:03 37.41091 15.27175 5863 ft 214 kts 258°
2026-05-01 12:03 37.40843 15.25363 5970 ft 209 kts 268°
2026-05-01 12:04 37.40695 15.23532 6098 ft 212 kts 268°
2026-05-01 12:04 37.40550 15.21686 6261 ft 212 kts 269°
2026-05-01 12:04 37.40399 15.19839 6469 ft 211 kts 268°
2026-05-01 12:04 37.40245 15.18031 6747 ft 206 kts 268°
2026-05-01 12:05 37.40087 15.16227 7057 ft 210 kts 268°
2026-05-01 12:05 37.39755 15.12534 7639 ft 210 kts 268°
2026-05-01 12:05 37.39589 15.10726 7972 ft 204 kts 268°
2026-05-01 12:06 37.39429 15.08961 8456 ft 207 kts 269°
2026-05-01 12:06 37.39540 15.07171 8928 ft 207 kts 287°
2026-05-01 12:06 37.39903 15.05406 9422 ft 209 kts 285°
2026-05-01 12:06 37.40224 15.03628 9890 ft 208 kts 284°
2026-05-01 12:07 37.40535 15.01846 10300 ft 208 kts 284°
2026-05-01 12:07 37.40847 15.00048 10729 ft 215 kts 284°
2026-05-01 12:07 37.41172 14.98173 11185 ft 224 kts 285°
2026-05-01 12:07 37.41510 14.96213 11654 ft 234 kts 285°
2026-05-01 12:08 37.41862 14.94166 12135 ft 244 kts 285°
2026-05-01 12:08 37.42229 14.92027 12636 ft 256 kts 285°
2026-05-01 12:08 37.42608 14.89811 13110 ft 268 kts 285°
2026-05-01 12:08 37.43006 14.87476 13612 ft 279 kts 285°
2026-05-01 12:09 37.43423 14.85036 14095 ft 291 kts 285°
2026-05-01 12:09 37.43856 14.82493 14527 ft 302 kts 284°
2026-05-01 12:09 37.44311 14.79868 14962 ft 311 kts 287°
2026-05-01 12:09 37.45163 14.77348 15387 ft 318 kts 304°
2026-05-01 12:10 37.46467 14.75062 15864 ft 326 kts 305°
2026-05-01 12:10 37.49128 14.70282 16777 ft 340 kts 304°
2026-05-01 12:10 37.50484 14.67810 17237 ft 345 kts 304°
2026-05-01 12:11 37.53202 14.62845 18341 ft 342 kts 303°
2026-05-01 12:11 37.54551 14.60378 18843 ft 343 kts 303°
2026-05-01 12:11 37.55910 14.57890 19365 ft 346 kts 303°
2026-05-01 12:12 37.57276 14.55390 19898 ft 348 kts 303°
2026-05-01 12:12 37.58651 14.52872 20426 ft 350 kts 303°
2026-05-01 12:12 37.60033 14.50339 20973 ft 351 kts 303°
2026-05-01 12:12 37.61421 14.47796 21524 ft 352 kts 302°
2026-05-01 12:13 37.62807 14.45259 22095 ft 352 kts 302°
2026-05-01 12:13 37.64206 14.42732 22677 ft 351 kts 303°
2026-05-01 12:13 37.65607 14.40216 23259 ft 351 kts 302°
2026-05-01 12:13 37.67010 14.37695 23836 ft 350 kts 302°
2026-05-01 12:14 37.68405 14.35186 24322 ft 349 kts 302°
2026-05-01 12:14 37.69795 14.32682 24852 ft 347 kts 302°
2026-05-01 12:14 37.71178 14.30187 25351 ft 346 kts 302°
2026-05-01 12:14 37.72552 14.27706 25874 ft 343 kts 302°
2026-05-01 12:15 37.73913 14.25245 26414 ft 341 kts 302°
2026-05-01 12:15 37.75268 14.22792 26962 ft 339 kts 302°
2026-05-01 12:15 37.76591 14.20395 27520 ft 336 kts 302°
2026-05-01 12:15 37.77923 14.17981 28085 ft 333 kts 302°
2026-05-01 12:16 37.79240 14.15592 28652 ft 330 kts 302°
2026-05-01 12:16 37.80541 14.13231 29230 ft 325 kts 301°
2026-05-01 12:16 37.81822 14.10904 29844 ft 320 kts 301°
2026-05-01 12:16 37.83084 14.08612 30413 ft 315 kts 301°
2026-05-01 12:17 37.84325 14.06354 30920 ft 310 kts 301°
2026-05-01 12:17 37.85541 14.04141 31452 ft 304 kts 301°
2026-05-01 12:17 37.86732 14.01973 31991 ft 297 kts 301°
2026-05-01 12:17 37.87900 13.99845 32530 ft 291 kts 300°
2026-05-01 12:18 37.89036 13.97773 33079 ft 282 kts 300°
2026-05-01 12:18 37.90138 13.95763 33576 ft 276 kts 300°
2026-05-01 12:18 37.91248 13.93729 33533 ft 286 kts 300°
2026-05-01 12:18 37.92395 13.91622 33476 ft 295 kts 301°
2026-05-01 12:19 37.94779 13.87255 33637 ft 307 kts 301°
2026-05-01 12:19 37.96003 13.85014 33748 ft 312 kts 301°
2026-05-01 12:19 37.97245 13.82740 33884 ft 316 kts 301°
2026-05-01 12:20 37.98500 13.80440 34009 ft 320 kts 301°
2026-05-01 12:20 37.99770 13.78110 34141 ft 323 kts 301°
2026-05-01 12:20 38.01056 13.75750 34261 ft 327 kts 301°
2026-05-01 12:20 38.02376 13.73380 34367 ft 332 kts 303°
2026-05-01 12:21 38.03836 13.71086 34478 ft 336 kts 306°
2026-05-01 12:21 38.05365 13.68819 34586 ft 340 kts 306°
2026-05-01 12:21 38.06922 13.66543 34701 ft 343 kts 307°
2026-05-01 12:21 38.08492 13.64243 34819 ft 346 kts 307°
2026-05-01 12:22 38.10063 13.61928 35038 ft 346 kts 307°
2026-05-01 12:22 38.11627 13.59612 35276 ft 345 kts 306°
2026-05-01 12:22 38.13182 13.57298 35517 ft 344 kts 306°
2026-05-01 12:22 38.14731 13.54984 35748 ft 343 kts 307°
2026-05-01 12:23 38.16271 13.52677 35993 ft 342 kts 307°
2026-05-01 12:23 38.17808 13.50371 36177 ft 343 kts 307°
2026-05-01 12:23 38.20931 13.45669 36169 ft 353 kts 307°
2026-05-01 12:24 38.24134 13.40840 36178 ft 362 kts 307°
2026-05-01 12:24 38.27422 13.35878 36176 ft 372 kts 307°
2026-05-01 12:25 38.32492 13.28213 36174 ft 382 kts 307°
2026-05-01 12:26 38.35922 13.23019 36175 ft 389 kts 307°
2026-05-01 12:26 38.41203 13.15003 36175 ft 398 kts 307°
2026-05-01 12:27 38.46584 13.06815 36176 ft 404 kts 307°
2026-05-01 12:28 38.51949 12.98632 36155 ft 397 kts 307°
2026-05-01 12:29 38.57236 12.90545 36177 ft 395 kts 307°
2026-05-01 12:29 38.62537 12.82411 36193 ft 400 kts 307°
2026-05-01 12:30 38.67912 12.74147 36188 ft 405 kts 307°
2026-05-01 12:31 38.71519 12.68589 36190 ft 407 kts 307°
2026-05-01 12:31 38.75137 12.63005 36188 ft 407 kts 307°
2026-05-01 12:32 38.78747 12.57422 36187 ft 406 kts 307°
2026-05-01 12:32 38.84154 12.49060 36194 ft 406 kts 309°
2026-05-01 12:33 38.88477 12.44342 36191 ft 413 kts 322°
2026-05-01 12:33 38.93644 12.40984 36214 ft 420 kts 332°